Location: Unspecified
(0.0000°N, 0.0000°E)
Time: 13:29:11
(UTC+00:00)

SRMSAT - Pass Details

Date: 09 December 2017
Orbit: 849 x 866 km, 20.0° (Epoch: 25 April)

Event Time Altitude Azimuth Distance (km) Brightness Sun altitude
Exits shadow 04:47:08 - 246° (WSW) 2,581 ? -15.0°
Reaches altitude 10° 04:47:23 10° 246° (WSW) 2,489 ? -14.9°
Maximum altitude 04:53:24 83° 158° (SSE) 868 ? -13.6°
Drops below altitude 10° 04:59:25 10° 71° (ENE) 2,491 ? -12.2°
Sets 05:01:59 0° 70° (ENE) 3,427 ? -11.6°
